sat.trackr.live / text

‹ back to catalog

HJ-2B

NORAD 46479 · 2020-067B

PAYLOAD ACTIVE UNKNOWN

§ Identity

Operator
Country
PRC
Launch date
2020-09-27
Launch site
TAISC
Launch vehicle
Mass (kg)
RCS (m²)

External: N2YO · Heavens-Above · Gunter

§ Orbital elements

Epoch: 2026-05-25T05:29:53.700000Z

Period
97.53 min
Inclination
97.8885°
Eccentricity
0.0001127
Mean motion
14.76521136 rev/d
Perigee alt
639.5 km
Apogee alt
641.1 km
Semi-major
7,018.5 km
B*
1.1455e-5
RAAN
225.1469°
Arg perigee
80.7601°
Mean anomaly
279.3737°
Rev number
30,487

§ Raw data

HJ-2B1 46479U 20067B   26145.22909375  .00000030  00000+0  11455-4 0  99922 46479  97.8885 225.1469 0001127  80.7601 279.3737 14.76521136304875

JSON: /api/v1/satellites/46479 · /tle

For live sub-satellite position, see the globe view (requires WebGL).

§ Visibility from observer

Set your observer location to see the next 7 days of passes ≥ 10°. The values pass through the URL so the page stays shareable.

No JS? Fill the form by hand. The geolocation button needs JavaScript.

§ Radio — SatNOGS DB

ModeDescriptionDownlinkUplink
BPSK S-band telemetry 2.243 GHz

1 transmitter · refreshed weekly from db.satnogs.org